#timestamp,LO_Frequency,Hit,StdDev 
1692111615.6,286047002.4,N
1692111635.4,286047000.4,N
1692111655.2,286047000.2,N
1692111675.1,286047002.6,N
1692111676.0,286047002.6,N
1692111695.8,286047002.6,N
1692111715.6,286047001.6,N
1692111735.5,286047001.6,N
1692111755.3,286047002.1,N
1692111775.2,286047002.0,N
1692111795.9,286047002.6,N
1692111815.7,286047002.2,N
1692111835.6,286047002.3,N
1692111855.4,286046999.7,N
1692111875.3,286046999.9,N
1692111895.1,286047000.0,N
1692111896.0,286047000.0,N
1692111915.8,286046999.9,N
1692111935.7,286047000.6,N
1692111955.5,286046998.6,N
1692111975.3,286046998.6,N
1692111995.2,286046996.6,N
1692112015.0,286046997.3,N
1692112015.9,286046997.3,N
1692112035.8,286046996.9,N
1692112055.6,286046999.5,N
1692112075.4,286046998.5,N
1692112095.3,286047001.1,N
1692112115.1,286046999.0,N
1692112135.9,286046999.1,N
1692112155.7,286046996.6,N
1692112175.5,286046997.7,N
1692112195.4,286046997.7,N
1692112215.2,286046996.8,N
1692112235.0,286046997.2,N
1692112235.9,286046997.2,N
1692112255.8,286046997.9,N
1692112275.6,286046997.6,N
1692112295.4,286046995.2,N
1692112315.3,286046995.2,N
1692112335.1,286046996.3,N
1692112355.9,286046995.9,N
1692112375.7,286046993.7,Y
1692112395.5,286046997.2,P
1692112415.4,286046997.7,P
1692112435.2,286046996.6,P
1692112455.0,286046999.6,N
1692112456.0,286046999.6,N
1692112475.8,286046997.1,N
1692112495.6,286046997.8,N
1692112515.5,286046995.1,Y
1692112535.3,286046999.4,P
1692112555.1,286047001.2,N
1692112575.9,286046998.6,N
1692112595.7,286046998.3,N
1692112615.6,286047001.1,N
1692112635.4,286047001.2,N
1692112655.2,286047001.0,N
1692112675.1,286047000.8,N
1692112676.0,286047000.8,N
1692112695.8,286046998.7,N
1692112715.6,286046999.2,N
1692112735.5,286046999.2,N
1692112755.3,286046996.6,N
1692112775.2,286046996.8,N
1692112795.9,286046997.3,N
1692112815.7,286046996.9,N
1692112835.6,286046996.6,N
1692112855.4,286046999.3,N
1692112875.3,286046999.0,N
1692112895.1,286046998.8,N
1692112896.0,286046998.8,N
1692112915.8,286046999.0,N
1692112935.7,286046999.0,N
1692112955.5,286046996.5,N
1692112975.3,286046996.9,N
1692112995.2,286046996.7,N
1692113015.0,286046996.9,N
1692113015.9,286046996.9,N
1692113035.8,286046999.2,N
1692113055.6,286046997.0,N
1692113075.4,286046999.2,N
1692113095.3,286046999.4,N
1692113115.1,286046996.5,N
1692113135.9,286046999.1,N
1692113155.7,286046997.1,N
1692113175.5,286046995.0,Y
1692113195.4,286046999.6,P
1692113215.2,286046999.5,N
1692113235.0,286046998.7,N
1692113235.9,286046998.7,N
1692113255.8,286046998.8,N
1692113275.6,286046998.4,Y
1692113295.5,286046998.6,P
1692113315.3,286046998.6,P
1692113335.1,286046999.0,P
1692113355.9,286046998.2,Y
1692113375.7,286047000.8,P
1692113395.6,286046998.2,N
1692113415.4,286046998.7,N
1692113435.2,286046999.0,N
1692113455.1,286046998.9,N
1692113456.0,286046998.9,N
1692113475.8,286046998.9,N
1692113495.6,286046998.5,N
1692113515.5,286046998.2,N
1692113535.3,286046998.1,N
1692113555.2,286047000.9,N
1692113575.9,286047000.8,N
1692113595.7,286046998.5,N
1692113615.6,286046999.3,N
1692113635.4,286046999.2,N
1692113655.2,286046999.6,N
1692113675.1,286046999.2,N
1692113676.0,286046999.2,N
1692113695.8,286046998.3,N
1692113715.7,286046998.9,N
1692113735.5,286046998.9,N
1692113755.3,286046998.3,N
1692113775.2,286047000.7,N
1692113795.9,286046999.9,N
1692113815.7,286047000.0,N
1692113835.6,286047000.2,N
1692113855.4,286047000.4,N
1692113875.2,286047000.4,N
1692113895.1,286047001.0,N
1692113896.0,286047001.0,N
1692113915.8,286047000.7,N
1692113935.7,286046998.6,N
1692113955.5,286046998.4,N
1692113975.3,286046996.5,Y
1692113995.2,286046999.5,P
1692114015.0,286046999.6,P
1692114015.9,286046999.6,P
1692114035.8,286046996.8,Y
1692114055.6,286046999.3,P
1692114075.4,286046999.4,P
1692114095.3,286046999.1,P
1692114115.1,286046999.6,N
1692114135.8,286046999.5,N
1692114155.7,286046999.4,Y
1692114175.5,286047001.2,P
1692114195.4,286047000.8,N
1692114215.2,286047000.3,N
1692114235.0,286047000.5,N
1692114235.9,286047000.5,N
1692114255.8,286047000.0,N
1692114275.6,286046999.8,N
1692114295.4,286047001.0,N
1692114315.3,286047001.0,N
1692114335.1,286047000.0,N
1692114355.9,286047000.7,N
1692114375.7,286046998.1,Y
1692114395.5,286046998.6,P
1692114415.4,286047001.1,N
1692114435.2,286047001.1,N
1692114455.1,286047000.6,N
1692114456.0,286047000.6,N
1692114475.8,286047002.8,Y
1692114495.6,286047001.1,P
1692114515.5,286046998.4,P
1692114535.3,286046996.5,P
1692114555.1,286046999.3,N
1692114575.9,286046998.3,N
1692114595.7,286046998.8,N
1692114615.6,286046999.0,N
1692114635.4,286046999.1,N
1692114655.2,286046998.7,N
1692114675.1,286046998.8,N
1692114676.0,286046998.8,N
1692114695.8,286046999.4,N
1692114715.6,286046999.1,N
1692114735.5,286046999.0,N
1692114755.3,286046998.6,N
1692114775.2,286046998.6,N
1692114795.9,286046998.2,N
1692114815.7,286046998.8,N
1692114835.6,286046999.2,N
1692114855.4,286046999.6,N
1692114875.2,286046996.6,Y
1692114895.1,286046999.3,P
1692114896.0,286046999.3,P
1692114915.8,286046999.1,P
1692114935.7,286046999.0,Y
1692114955.5,286046998.6,P
1692114975.3,286047001.1,P
1692114995.2,286047000.4,N
1692115015.0,286046999.8,N
1692115015.9,286046999.8,N
1692115035.8,286047002.1,N
1692115055.6,286046999.7,N
1692115075.4,286046999.8,N
1692115095.3,286046999.7,N
1692115115.1,286047000.0,N
1692115135.8,286047001.6,N
1692115155.7,286047001.3,N
1692115175.5,286047001.4,N
1692115195.4,286047001.7,N
